Location: Newark
(41.8083°N, 72.2500°W)
Time: 12:55:06
(UTC+00:00)

Altair - Pass Details

Date: 02 December 2021
Orbit: 1501 x 1683 km, 47.2° (Epoch: 27 January)

Event Time Altitude Azimuth Distance (km) Brightness Sun altitude
Rises 00:34:46 0° 284° (WNW) 4,692 11.0 -35.8°
Reaches altitude 10° 00:37:53 10° 287° (WNW) 3,691 10.2 -36.4°
Enters shadow 00:46:16 63° 343° (NNW) 1,651 7.5 -38.0°
